SR8WXL-13 Weather Reports


time (UTC)temp
C
wind
direction
speed
KPH
gust
KPH
rain 1hr
cm
rain 24hr
cm
rain mn
cm
humidity
%
barometer
mb
20260902120507 22 323 25.7 32.2 0.00 0.00 0.00 47 1035.2
20260902115134 22 16 25.7 40.2 0.00 0.00 0.00 49 1035.5
20260902113913 22 71 3.2 6.4 0.00 0.00 0.00 51 1035.4
20260902112619 22 33 14.5 17.7 0.00 0.00 0.00 48 1035.4
20260902111402 22 33 3.2 6.4 0.00 0.00 0.00 50 1035.5
20260902110107 22 8 17.7 25.7 0.00 0.00 0.00 52 1035.9
20260902104830 22 304 6.4 17.7 0.00 0.00 0.00 49 1035.7
20260902103630 22 1 17.7 25.7 0.00 0.00 0.00 54 1035.7
20260902102158 21 22 11.3 17.7 0.00 0.00 0.00 59 1036.0
20260902100909 21 22 11.3 14.5 0.00 0.00 0.00 61 1035.9
20260902095454 21 23 14.5 17.7 0.00 0.00 0.00 62 1035.9
20260902094020 22 24 6.4 14.5 0.00 0.00 0.00 60 1035.9
20260902092516 21 30 3.2 6.4 0.00 0.00 0.00 63 1036.1
20260902091243 21 34 20.9 32.2 0.00 0.00 0.00 60 1036.1
20260902085941 22 36 6.4 14.5 0.00 0.00 0.00 59 1035.9
20260902084445 21 6 6.4 6.4 0.00 0.00 0.00 62 1035.9
20260902083120 20 5 17.7 25.7 0.00 0.00 0.00 66 1036.1
20260902081739 20 7 3.2 6.4 0.00 0.00 0.00 64 1036.1
20260902080539 21 11 11.3 14.5 0.00 0.00 0.00 64 1036.2
20260902075109 18 25 11.3 14.5 0.00 0.00 0.00 66 1036.1
20260902073814 20 24 11.3 14.5 0.00 0.00 0.00 65 1036.0
20260902072525 18 28 0.0 0.0 0.00 0.00 0.00 68 1036.1
20260902071234 18 13 0.0 0.0 0.00 0.00 0.00 67 1036.2
20260902065728 18 27 6.4 6.4 0.00 0.00 0.00 71 1035.8
20260902064452 17 24 6.4 6.4 0.00 0.00 0.00 72 1035.9
20260902063148 17 30 0.0 0.0 0.00 0.00 0.00 72 1035.7
20260902061829 17 40 3.2 6.4 0.00 0.00 0.00 78 1035.4
20260902060423 16 30 6.4 14.5 0.00 0.00 0.00 83 1035.6
20260902055129 13 32 0.0 0.0 0.00 0.00 0.00 90 1035.6
20260902053817 12 34 0.0 0.0 0.00 0.00 0.00 95 1035.6
20260902052350 12 32 0.0 0.0 0.00 0.00 0.00 97 1035.5
20260902051120 11 32 0.0 0.0 0.00 0.00 0.00 98 1035.8
20260902045813 11 33 0.0 0.0 0.00 0.00 0.00 98 1035.6
20260902044348 10 32 0.0 0.0 0.00 0.00 0.00 98 1035.6
20260902043133 10 35 0.0 0.0 0.00 0.00 0.00 98 1035.4
20260902041633 8 31 0.0 0.0 0.00 0.00 0.00 98 1035.6
20260902040413 8 31 0.0 0.0 0.00 0.00 0.00 98 1035.5
20260902035143 10 33 0.0 0.0 0.00 0.00 0.00 98 1035.2
20260902033758 10 31 0.0 0.0 0.00 0.00 0.00 97 1035.5
20260902032508 10 31 0.0 0.0 0.00 0.00 0.00 97 1035.4
20260902031043 10 32 0.0 0.0 0.00 0.00 0.00 97 1035.6
20260902025843 10 31 0.0 0.0 0.00 0.00 0.00 97 1035.4
20260902024604 10 31 0.0 0.0 0.00 0.00 0.00 96 1035.6
20260902023317 10 31 0.0 0.0 0.00 0.00 0.00 97 1035.5
20260902022044 10 33 0.0 0.0 0.00 0.00 0.00 97 1035.6
20260902020558 10 35 0.0 0.0 0.00 0.00 0.00 98 1035.6
20260902015330 8 36 0.0 0.0 0.00 0.00 0.00 98 1035.5
20260902014118 8 32 0.0 0.0 0.00 0.00 0.00 97 1035.5
20260902012844 8 32 0.0 0.0 0.00 0.00 0.00 97 1035.7
20260902011603 8 31 0.0 0.0 0.00 0.00 0.00 97 1035.5
20260902010304 8 32 0.0 0.0 0.00 0.00 0.00 97 1035.5
20260902004913 8 36 0.0 0.0 0.00 0.00 0.00 96 1035.4
20260902003709 10 34 0.0 0.0 0.00 0.00 0.00 96 1035.6
20260902002353 10 34 0.0 0.0 0.00 0.00 0.00 96 1035.5
20260902001038 10 32 0.0 0.0 0.00 0.00 0.00 96 1035.7
20260901235644 10 22 11.3 14.5 0.00 0.00 0.00 96 1035.6
20260901234408 10 32 0.0 0.0 0.00 0.00 0.00 96 1035.5
20260901233123 10 34 0.0 0.0 0.00 0.00 0.00 96 1035.4
20260901231638 10 34 0.0 0.0 0.00 0.00 0.00 95 1035.3
20260901230437 10 34 0.0 0.0 0.00 0.00 0.00 95 1035.5
20260901225003 10 33 0.0 0.0 0.00 0.00 0.00 95 1035.1
20260901223613 11 37 0.0 0.0 0.00 0.00 0.00 95 1035.2
20260901222218 11 32 0.0 0.0 0.00 0.00 0.00 95 1035.2
20260901220948 11 32 0.0 0.0 0.00 0.00 0.00 94 1035.2
20260901215634 11 30 0.0 0.0 0.00 0.00 0.00 94 1035.2
20260901214228 11 31 0.0 0.0 0.00 0.00 0.00 93 1035.1
20260901212804 12 29 0.0 0.0 0.00 0.00 0.00 92 1035.3
20260901211353 12 33 0.0 0.0 0.00 0.00 0.00 92 1035.0
20260901210044 12 36 0.0 0.0 0.00 0.00 0.00 91 1035.1
20260901204758 12 33 0.0 0.0 0.00 0.00 0.00 92 1035.1
20260901203339 12 33 0.0 0.0 0.00 0.00 0.00 91 1035.1
20260901201952 12 34 0.0 0.0 0.00 0.00 0.00 90 1034.8
20260901200544 12 34 0.0 0.0 0.00 0.00 0.00 90 1034.7
20260901195118 12 32 0.0 0.0 0.00 0.00 0.00 89 1034.8
20260901193914 12 34 0.0 0.0 0.00 0.00 0.00 87 1034.6
20260901192504 13 34 0.0 0.0 0.00 0.00 0.00 86 1034.7
20260901191233 15 33 0.0 0.0 0.00 0.00 0.00 84 1034.7
20260901185739 15 33 0.0 0.0 0.00 0.00 0.00 82 1034.6
20260901184518 16 34 0.0 0.0 0.00 0.00 0.00 80 1034.5
20260901183059 17 33 0.0 0.0 0.00 0.00 0.00 77 1034.6
20260901181858 17 34 0.0 0.0 0.00 0.00 0.00 74 1034.4
20260901180649 17 36 0.0 0.0 0.00 0.00 0.00 70 1034.4
20260901175438 17 22 6.4 14.5 0.00 0.00 0.00 65 1034.3
20260901174209 17 32 11.3 14.5 0.00 0.00 0.00 64 1034.1
20260901172843 18 32 3.2 6.4 0.00 0.00 0.00 64 1034.0
20260901171442 18 42 3.2 6.4 0.00 0.00 0.00 62 1033.8
20260901165954 20 29 14.5 14.5 0.00 0.00 0.00 60 1033.7
20260901164658 20 337 17.7 32.2 0.00 0.00 0.00 58 1033.3
20260901163429 21 31 14.5 17.7 0.00 0.00 0.00 56 1033.7
20260901162132 21 354 20.9 25.7 0.00 0.00 0.00 55 1033.5
20260901160713 22 8 17.7 25.7 0.00 0.00 0.00 55 1033.2
20260901155424 22 32 14.5 17.7 0.00 0.00 0.00 53 1033.1
20260901154029 22 359 25.7 32.2 0.00 0.00 0.00 53 1033.2
20260901152643 22 30 29.0 40.2 0.00 0.00 0.00 51 1033.3
20260901151204 22 9 32.2 46.7 0.00 0.00 0.00 50 1032.9
20260901145728 22 30 20.9 32.2 0.00 0.00 0.00 50 1032.8
20260901144354 22 264 40.2 61.2 0.00 0.00 0.00 52 1033.0
20260901142914 22 353 6.4 17.7 0.00 0.00 0.00 53 1032.9
20260901141548 22 51 17.7 17.7 0.00 0.00 0.00 53 1032.6
20260901140224 22 48 17.7 25.7 0.00 0.00 0.00 53 1032.8
20260901134728 22 2 43.5 61.2 0.00 0.00 0.00 51 1032.6
20260901133450 22 29 14.5 17.7 0.00 0.00 0.00 57 1032.8
20260901132123 22 336 14.5 17.7 0.00 0.00 0.00 57 1032.8
20260901130904 23 0 14.5 17.7 0.00 0.00 0.00 55 1032.5
20260901125623 22 349 35.4 40.2 0.00 0.00 0.00 56 1032.6
20260901124359 23 33 14.5 17.7 0.00 0.00 0.00 55 1032.5
20260901122953 22 24 14.5 17.7 0.00 0.00 0.00 56 1032.5
20260901121548 22 24 40.2 46.7 0.00 0.00 0.00 59 1032.8